HIMAWARI-6 (MTSAT-1R)

Last updated on Wed Jan 13 2016 15:06:44 GMT+0000 (Coordinated Universal Time)

1 28622U 05006A 16013.11772539 -.00000232 00000-0 00000+0 0 9994 2 28622 0.7035 84.1012 0019529 203.5528 195.4639 0.98915055 39825
UTC large
Height (km)
Speed (km/s)
/
Latitude / Longitude
Inclination (degrees)
Orbital Period (minutes)
Azimuth
Elevation
Range (km)
Doppler Factor

Next 0 passes for location: London (51.5072 / 0.1276)

Sorry there are no passes over London.